Hourly Data Report for October 09, 2019

SAINT JOHN A
NEW BRUNSWICK
Current Station Operator: NAVCAN

45°18'58.000" N
65°53'24.000" W
108.80 m
8104901
71609
YSJ

Download Data

Hourly Data (October 2019)
Hourly Data Report for October 9, 2019
TIME
LST
Temp Definition
°C
Dew Point Definition
°C
Rel Hum Definition
%
Precip. Amount Definition
mm

Wind Dir Definition
10's deg

Wind Spd Definition
km/h
Visibility Definition
km
Stn Press Definition
kPa
Hmdx Definition


Wind Chill Definition


Weather Definition


00:00 4.8 4.8 100   6 5 19.3 101.47     LegendNANA
01:00 4.2 4.2 100   2 4 24.1 101.56     LegendNANA
02:00 6.3 5.8 96   10 4 24.1 101.56     Mostly Cloudy
03:00 4.1 4.1 100   12 3 24.1 101.55     LegendNANA
04:00 2.2 2.2 100   4 7 24.1 101.59     LegendNANA
05:00 4.7 4.3 97   1 3 24.1 101.64     Mostly Cloudy
06:00 3.9 3.8 99   9 7 24.1 101.69     LegendNANA
07:00 2.9 2.9 100   11 6 24.1 101.72     LegendNANA
08:00 7.3 5.5 88   2 11 24.1 101.79     Mostly Cloudy
09:00 10.4 6.5 77   2 16 24.1 101.78     LegendNANA
10:00 16.5 4.9 46   2 11 24.1 101.83     LegendNANA
11:00 17.2 7.8 54   6 17 24.1 101.81     Mainly Clear
12:00 15.5 4.5 48   2 20 24.1 101.73     LegendNANA
13:00 16.2 4.4 45   5 18 24.1 101.70     LegendNANA
14:00 15.9 4.9 48   9 10 24.1 101.67     Mainly Clear
15:00 15.2 4.0 47   10 12 24.1 101.67     LegendNANA
16:00 14.9 4.9 51   11 15 24.1 101.61     LegendNANA
17:00 12.6 5.5 62   10 10 24.1 101.64     Mainly Clear
18:00 10.4 5.8 73   7 7 24.1 101.67     LegendNANA
19:00 7.5 5.2 85   5 9 24.1 101.69     LegendNANA
20:00 6.5 4.7 88   5 5 24.1 101.72     Mostly Cloudy
21:00 4.2 3.3 94   2 7 24.1 101.72     LegendNANA
22:00 6.9 5.0 88   36 5 24.1 101.73     LegendNANA
23:00 6.1 3.7 85   2 8 24.1 101.74     Mostly Cloudy

Notes on Data Quality.

Legend

  • E = Estimated
  • M = Missing
  • NA = Not Available*
  • [empty] = Indicates an unobserved value
Date modified: